Date String (YYYY-MM-DD hh:mm:ss) UTC,Instrument flags,absolute air pressure of the measurement (hPa),sample flow rate (lpm),inlet stack bypass flow (lpm),air temperature of the measurement (°C),ambient temperature measured by the external sensor (°C),aerosol sample conditioner tube jacket temperature (°C),OPC LED temperature (°C),internal box temperature (°C),relative humidity of the measurement (%),span deviation,mass concentration of particles derived from Lorenz-Mie calculation of OPC scattering (μg/m³),mass concentration of particles derived from Lorenz-Mie calculation of OPC scattering (μg/m³),mass concentration of particles derived from Lorenz-Mie calculation of OPC scattering (μg/m³)
DateTimeUTC,F1_M11,P_M11,Q1_M11,Q2_M11,T1_M11,T2_M11,T3_M11,T4_M11,T5_M11,U1_M11,ZSPAN_M11,X0_M11,X2_M11,X1_M11
2023-07-17 16:00:00,SystemResetWarning,0834.4,5.01,000.00,028.7,025.4,000.0,037.0,030.1,26.5,-000.2,0013.68,0008.16,0007.63
2023-07-17 16:01:00,SystemResetWarning,0834.3,5.00,000.00,028.7,025.7,000.0,037.0,030.1,27.0,-000.1,0013.66,0008.21,0007.65
2023-07-17 16:02:00,SystemResetWarning,0834.3,5.00,000.00,028.7,026.2,000.0,037.1,030.2,27.6,0000.0,0013.88,0008.25,0007.70
2023-07-17 16:03:00,SystemResetWarning,0834.3,4.99,000.00,028.7,026.5,000.0,037.1,030.3,27.8,0000.0,0013.10,0008.31,0007.74
2023-07-17 16:04:00,SystemResetWarning,0834.4,5.00,000.00,028.8,026.9,000.0,037.1,030.4,28.0,0000.0,0013.11,0008.33,0007.75
2023-07-17 16:05:00,SystemResetWarning,0834.4,5.00,000.00,028.8,027.2,000.0,037.2,030.5,28.2,0000.3,0013.29,0008.32,0007.72
2023-07-17 16:06:00,SystemResetWarning,0834.5,5.01,000.00,028.8,027.4,000.0,037.2,030.5,28.2,0000.2,0013.51,0008.36,0007.74
2023-07-17 16:07:00,SystemResetWarning,0834.3,4.99,000.00,028.9,027.2,000.0,037.1,030.6,28.4,0000.5,0013.75,0008.42,0007.76
2023-07-17 16:08:00,SystemResetWarning,0834.5,4.98,000.00,028.8,025.8,000.0,037.0,030.4,28.1,0000.6,0013.84,0008.45,0007.77
2023-07-17 16:09:00,SystemResetWarning,0834.4,5.02,000.00,028.8,025.0,000.0,036.9,030.2,28.7,0000.4,0014.20,0008.53,0007.84
2023-07-17 16:10:00,SystemResetWarning,0834.2,5.00,000.00,028.7,025.3,000.0,036.9,030.1,28.6,0000.2,0014.64,0008.67,0007.92
2023-07-17 16:11:00,SystemResetWarning,0834.5,4.99,000.00,028.7,025.7,000.0,037.0,030.1,27.9,0000.0,0014.99,0008.81,0008.01
2023-07-17 16:12:00,SystemResetWarning,0834.3,5.00,000.00,028.7,026.1,000.0,037.0,030.2,27.8,0000.1,0015.32,0008.89,0008.09
2023-07-17 16:13:00,SystemResetWarning,0834.3,5.01,000.00,028.7,026.5,000.0,037.1,030.3,28.8,-000.1,0015.38,0008.92,0008.13
2023-07-17 16:14:00,SystemResetWarning,0834.3,5.00,000.00,028.7,026.9,000.0,037.1,030.4,28.9,-000.0,0015.76,0008.98,0008.16
2023-07-17 16:15:00,SystemResetWarning,0834.4,5.00,000.00,028.8,027.2,000.0,037.1,030.4,28.0,-000.4,0016.96,0009.05,0008.20
2023-07-17 16:16:00,SystemResetWarning,0834.4,4.99,000.00,028.8,027.4,000.0,037.2,030.5,29.8,-000.5,0018.08,0009.17,0008.26
2023-07-17 16:17:00,SystemResetWarning,0834.5,5.00,000.00,028.9,026.7,000.0,037.1,030.5,30.6,-000.6,0019.23,0009.25,0008.28
2023-07-17 16:18:00,SystemResetWarning,0834.2,5.00,000.00,028.8,025.2,000.0,037.0,030.2,30.7,-000.8,0019.77,0009.26,0008.29
2023-07-17 16:19:00,SystemResetWarning,0834.2,5.01,000.00,028.7,025.1,000.0,036.9,030.1,30.8,-000.7,0020.38,0009.26,0008.29
2023-07-17 16:20:00,SystemResetWarning,0834.3,5.01,000.00,028.7,025.4,000.0,036.9,030.1,30.7,-000.2,0020.90,0009.23,0008.28
2023-07-17 16:21:00,SystemResetWarning,0834.5,5.00,000.00,028.6,025.8,000.0,037.0,030.1,31.5,0000.1,0020.99,0009.17,0008.26
2023-07-17 16:22:00,SystemResetWarning,0834.4,4.99,000.00,028.7,026.2,000.0,037.0,030.2,31.3,0000.3,0021.36,0009.16,0008.26
2023-07-17 16:23:00,SystemResetWarning,0834.5,5.00,000.00,028.7,026.6,000.0,037.0,030.3,30.4,0000.4,0021.79,0009.17,0008.25
2023-07-17 16:24:00,SystemResetWarning,0834.5,5.00,000.00,028.7,027.0,000.0,037.1,030.4,30.5,0000.5,0021.30,0009.18,0008.27
2023-07-17 16:25:00,SystemResetWarning,0834.6,5.00,000.00,028.8,027.2,000.0,037.1,030.4,29.8,0000.6,0021.37,0009.19,0008.28
2023-07-17 16:26:00,SystemResetWarning,0834.4,5.00,000.00,028.8,027.3,000.0,037.1,030.5,29.6,0001.0,0021.25,0009.16,0008.30
2023-07-17 16:27:00,SystemResetWarning,0834.5,4.99,000.00,028.8,026.0,000.0,037.0,030.3,29.3,0001.0,0019.88,0009.07,0008.29
2023-07-17 16:28:00,SystemResetWarning,0834.3,5.01,000.00,028.7,025.1,000.0,036.9,030.2,29.1,0000.9,0019.13,0008.93,0008.24
2023-07-17 16:29:00,SystemResetWarning,0834.2,5.01,000.00,028.7,025.3,000.0,036.9,030.1,29.6,0001.0,0018.60,0008.87,0008.21
2023-07-17 16:30:00,SystemResetWarning,0834.2,4.99,000.00,028.6,025.6,000.0,036.9,030.1,29.0,0000.9,0018.48,0008.84,0008.20
2023-07-17 16:31:00,SystemResetWarning,0834.2,5.01,000.00,028.6,026.1,000.0,037.0,030.1,29.4,0000.5,0017.67,0008.84,0008.17
2023-07-17 16:32:00,SystemResetWarning,0834.2,5.01,000.00,028.7,026.5,000.0,037.0,030.2,29.0,0000.2,0018.16,0008.80,0008.12
2023-07-17 16:33:00,SystemResetWarning,0834.2,4.99,000.00,028.7,026.8,000.0,037.0,030.3,29.7,-000.2,0018.44,0008.74,0008.07
2023-07-17 16:34:00,SystemResetWarning,0834.1,4.99,000.00,028.7,027.1,000.0,037.1,030.4,28.7,-000.3,0018.68,0008.67,0008.04
2023-07-17 16:35:00,SystemResetWarning,0834.1,5.00,000.00,028.8,027.2,000.0,037.1,030.5,27.9,-000.5,0018.55,0008.68,0008.02
2023-07-17 16:36:00,SystemResetWarning,0834.1,4.99,000.00,028.8,026.1,000.0,037.0,030.3,28.8,-000.8,0018.62,0008.66,0007.98
2023-07-17 16:37:00,SystemResetWarning,0834.1,5.00,000.00,028.7,025.0,000.0,036.9,030.2,28.2,-000.9,0018.20,0008.67,0007.95
2023-07-17 16:38:00,SystemResetWarning,0834.1,5.01,000.00,028.7,025.2,000.0,036.9,030.1,28.0,-000.8,0017.97,0008.66,0007.95
2023-07-17 16:39:00,SystemResetWarning,0834.1,5.02,000.00,028.6,025.5,000.0,036.9,030.0,27.2,-000.8,0017.56,0008.71,0007.99
2023-07-17 16:40:00,SystemResetWarning,0834.2,4.99,000.00,028.6,025.9,000.0,036.9,030.1,27.6,-000.7,0017.50,0008.75,0008.02
2023-07-17 16:41:00,SystemResetWarning,0834.2,4.99,000.00,028.6,026.3,000.0,037.0,030.2,27.4,-000.7,0017.94,0008.76,0008.03
2023-07-17 16:42:00,SystemResetWarning,0834.2,5.00,000.00,028.6,026.7,000.0,037.0,030.3,27.3,-000.4,0017.79,0008.76,0008.06
2023-07-17 16:43:00,SystemResetWarning,0834.2,5.01,000.00,028.7,027.0,000.0,037.0,030.4,27.7,-000.4,0016.94,0008.78,0008.10
2023-07-17 16:44:00,SystemResetWarning,0834.2,5.01,000.00,028.7,027.3,000.0,037.1,030.4,28.3,-000.2,0016.22,0008.84,0008.15
2023-07-17 16:45:00,SystemResetWarning,0834.2,5.00,000.00,028.8,027.0,000.0,037.0,030.5,26.2,-000.0,0014.86,0008.84,0008.19
2023-07-17 16:46:00,SystemResetWarning,0834.2,4.98,000.00,028.7,025.5,000.0,036.9,030.2,26.0,0000.1,0014.74,0008.81,0008.17
2023-07-17 16:47:00,SystemResetWarning,0834.1,5.01,000.00,028.7,024.9,000.0,036.8,030.1,25.4,0000.4,0014.53,0008.81,0008.18
2023-07-17 16:48:00,SystemResetWarning,0834.2,5.01,000.00,028.6,025.2,000.0,036.8,030.0,26.8,0000.6,0014.03,0008.79,0008.19
2023-07-17 16:49:00,SystemResetWarning,0834.1,5.00,000.00,028.6,025.6,000.0,036.9,030.0,26.9,0000.4,0014.79,0008.80,0008.19
2023-07-17 16:50:00,SystemResetWarning,0834.1,5.00,000.00,028.6,026.0,000.0,036.9,030.1,27.3,0000.5,0015.45,0008.81,0008.18
2023-07-17 16:51:00,SystemResetWarning,0834.1,5.00,000.00,028.6,026.5,000.0,037.0,030.2,25.8,0000.7,0015.48,0008.83,0008.18
2023-07-17 16:52:00,SystemResetWarning,0834.1,5.00,000.00,028.6,026.8,000.0,037.0,030.3,25.7,0000.9,0015.42,0008.84,0008.19
2023-07-17 16:53:00,SystemResetWarning,0834.2,4.99,000.00,028.7,027.1,000.0,037.0,030.4,26.4,0001.1,0015.78,0008.88,0008.19
2023-07-17 16:54:00,SystemResetWarning,0834.1,4.99,000.00,028.7,026.9,000.0,037.0,030.4,26.8,0001.2,0016.50,0008.90,0008.18
2023-07-17 16:55:00,SystemResetWarning,0834.1,5.01,000.00,028.7,025.4,000.0,036.9,030.2,27.0,0001.1,0017.06,0008.89,0008.16
2023-07-17 16:56:00,SystemResetWarning,0834.1,4.99,000.00,028.6,024.8,000.0,036.8,030.0,27.5,0001.0,0018.26,0008.91,0008.12
2023-07-17 16:57:00,SystemResetWarning,0834.1,5.00,000.00,028.6,025.1,000.0,036.8,029.9,27.0,0000.9,0018.62,0008.93,0008.09
2023-07-17 16:58:00,SystemResetWarning,0834.1,5.01,000.00,028.5,025.5,000.0,036.8,029.9,27.6,0000.8,0020.42,0008.93,0008.06
2023-07-17 16:59:00,SystemResetWarning,0834.1,4.99,000.00,028.5,026.0,000.0,036.9,030.0,28.2,0000.6,0021.87,0008.94,0008.04
